Location: Morisset
(33.1080°S, 151.4871°E)
Time: 09:09:34
(UTC+00:00)

Cosmos 2279 Rocket - Pass Details

Date: 29 October 2020
Orbit: 963 x 980 km, 82.9° (Epoch: 27 November)

Event Time Altitude Azimuth Distance (km) Brightness Sun altitude
Rises 18:13:40 0° 352° (N) 3,635 6.7 -9.3°
Reaches altitude 10° 18:16:09 10° 351° (N) 2,698 6.0 -8.8°
Maximum altitude 18:22:19 78° 264° (W) 998 4.0 -7.6°
Drops below altitude 10° 18:28:37 10° 177° (S) 2,740 6.7 -6.4°
Sets 18:31:10 0° 175° (S) 3,696 7.4 -5.9°
